Starlink 34643

operational
NORAD ID: 64923 Int'l Des: 2025-157 Owner: SPXS Country: US Constellation: starlink
LEOCIRCULAR

关于 Starlink 34643

正在加载描述...

实时位置

正在加载3D地球...

即将过境

高度历史

Altitude vs Time

uPlot chart will show altitude changes over time

两行轨道根数

1 64923U 25157V 25342.61540542 .00060855 00000-0 15194-2 0 9993
2 64923 53.1581 52.6935 0001153 101.2012 258.9122 15.39616965 22123
Epoch: Dec 8, 2025 • Age: 12 hours

当前状态

高度 462.5 km
速度 7.63 km/s
星下点 -44.05°S, 157.67°E
发射日期 Jul 26, 2025
运行时间 0.3 years
类型 internet

技术详情

分类 Payload
质量 575.00 kg
干质量 530.00 kg
总质量 575.00 kg
长度 0.30 m
直径 4.10 m
跨度 29.00 m
形状 Box + pan
制造商 SPXS
平台类型 Starlink V2MO
阶段状态 In Orbit
所有者/国家 SPXS/US

大型星座

Loading constellations...